Weather in Panipat

India     29°22′58″N   76°58′09″E
temp.,
°C
wind,
m/s
gust,
m/s
humid.,
%
clouds,
%
prec.,
mm/h
press.,
hPa
HPBL,
m
20 june, sun
sun2023:30+27e486464 0.2 1001526
02:30+26ene366634 0.2 1000382
05:30+25e367716 0.3 1000225
08:30+29se336420 0.1 1001815
11:30+34ese324710 0.1 10011519
14:30+38ene343180 0.0 9982947
17:30+37e443687 0.0 9971814
20:30+33ese58487 0.0 999402
21 june, mon
mon2123:30+31se495614 0.0 1000397
02:30+30ese48615 0.0 1000301
05:30+28ese59715 0.0 1000376
08:30+32se55555 0.0 1002748
11:30+37se43365 0.0 10011862
14:30+41ese132461 0.0 9983680
17:30+35ene573682 0.1 997137
20:30+35e36298 0.0 998103
22 june, tue
tue2223:30+33ese494443 0.0 999268
02:30+31e595810 0.0 998311
05:30+29ese46700 0.0 1000271
08:30+33ese21512 0.0 1002736
11:30+39n35270 0.0 10012188
14:30+43n46184 0.0 9983769
17:30+44wnw561498 0.0 9964258
20:30+39w612218 0.0 998742
23 june, wed
wed2323:30+36w48260 0.0 999291
02:30+34wnw35295 0.0 999109
05:30+33w383315 0.0 1000179
08:30+37wnw79313 0.0 10021606
11:30+41wnw67230 0.0 10012779
14:30+44w67181 0.0 9983675
17:30+43w77173 0.0 9973563
20:30+40w712240 0.0 998770
24 june, thu
thu2423:30+38wnw49281 0.0 999401
02:30+36wnw612310 0.0 998713
05:30+35w612320 0.0 998466
08:30+37wnw911300 0.0 10001455
11:30+42wnw78220 0.0 9993093
14:30+44w78167 0.0 9954707
17:30+43wsw991856 0.0 9933899
20:30+39wsw812250 0.0 995939